owner,sensor,date,latitude,longitude,air_pressure(mBar),qcFlag 
COMPS,ioos:station:USF.COMPS:C12:1,2019-03-01T00:05:00Z,27.4980,-83.7220,1018.54,1111122 
COMPS,ioos:station:USF.COMPS:C12:1,2019-03-01T00:35:00Z,27.4980,-83.7220,1018.92,1111122 
COMPS,ioos:station:USF.COMPS:C12:1,2019-03-01T01:05:00Z,27.4980,-83.7220,1019.28,1111122 
COMPS,ioos:station:USF.COMPS:C12:1,2019-03-01T01:35:00Z,27.4980,-83.7220,1019.52,1111122 
COMPS,ioos:station:USF.COMPS:C12:1,2019-03-01T02:05:00Z,27.4980,-83.7220,1019.47,1111122 
COMPS,ioos:station:USF.COMPS:C12:1,2019-03-01T02:35:00Z,27.4980,-83.7220,1019.59,1111122 
COMPS,ioos:station:USF.COMPS:C12:1,2019-03-01T03:05:00Z,27.4980,-83.7220,1019.65,1111122 
COMPS,ioos:station:USF.COMPS:C12:1,2019-03-01T03:35:00Z,27.4980,-83.7220,1019.54,1111122 
COMPS,ioos:station:USF.COMPS:C12:1,2019-03-01T04:05:00Z,27.4980,-83.7220,1019.47,1111122 
COMPS,ioos:station:USF.COMPS:C12:1,2019-03-01T04:35:00Z,27.4980,-83.7220,1019.25,1111122 
COMPS,ioos:station:USF.COMPS:C12:1,2019-03-01T05:05:00Z,27.4980,-83.7220,1019.08,1111122 
COMPS,ioos:station:USF.COMPS:C12:1,2019-03-01T05:35:00Z,27.4980,-83.7220,1018.94,1111122 
COMPS,ioos:station:USF.COMPS:C12:1,2019-03-01T06:05:00Z,27.4980,-83.7220,1018.85,1111122 
COMPS,ioos:station:USF.COMPS:C12:1,2019-03-01T06:35:00Z,27.4980,-83.7220,1018.8,1111122 
COMPS,ioos:station:USF.COMPS:C12:1,2019-03-01T07:05:00Z,27.4980,-83.7220,1018.67,1111122 
COMPS,ioos:station:USF.COMPS:C12:1,2019-03-01T07:35:00Z,27.4980,-83.7220,1018.36,1111122 
COMPS,ioos:station:USF.COMPS:C12:1,2019-03-01T08:05:00Z,27.4980,-83.7220,1018.2,1111122 
COMPS,ioos:station:USF.COMPS:C12:1,2019-03-01T08:35:00Z,27.4980,-83.7220,1018.15,1111122 
COMPS,ioos:station:USF.COMPS:C12:1,2019-03-01T09:05:00Z,27.4980,-83.7220,1017.99,1111122 
COMPS,ioos:station:USF.COMPS:C12:1,2019-03-01T09:35:00Z,27.4980,-83.7220,1018.15,1111122 
COMPS,ioos:station:USF.COMPS:C12:1,2019-03-01T10:05:00Z,27.4980,-83.7220,1017.96,1111122 
COMPS,ioos:station:USF.COMPS:C12:1,2019-03-01T10:35:00Z,27.4980,-83.7220,1017.82,1111122 
COMPS,ioos:station:USF.COMPS:C12:1,2019-03-01T11:05:00Z,27.4980,-83.7220,1018.63,1111122 
COMPS,ioos:station:USF.COMPS:C12:1,2019-03-01T11:35:00Z,27.4980,-83.7220,1018.91,1111122 
COMPS,ioos:station:USF.COMPS:C12:1,2019-03-01T12:05:00Z,27.4980,-83.7220,1019.16,1111122 
COMPS,ioos:station:USF.COMPS:C12:1,2019-03-01T12:35:00Z,27.4980,-83.7220,1019.7,1111122 
COMPS,ioos:station:USF.COMPS:C12:1,2019-03-01T13:05:00Z,27.4980,-83.7220,1020.11,1111122 
COMPS,ioos:station:USF.COMPS:C12:1,2019-03-01T13:35:00Z,27.4980,-83.7220,1020.58,1111122 
COMPS,ioos:station:USF.COMPS:C12:1,2019-03-01T14:05:00Z,27.4980,-83.7220,1020.62,1111122 
COMPS,ioos:station:USF.COMPS:C12:1,2019-03-01T14:35:00Z,27.4980,-83.7220,1020.69,1111122 
COMPS,ioos:station:USF.COMPS:C12:1,2019-03-01T15:05:00Z,27.4980,-83.7220,1020.86,1111122 
COMPS,ioos:station:USF.COMPS:C12:1,2019-03-01T15:35:00Z,27.4980,-83.7220,1020.42,1111122 
COMPS,ioos:station:USF.COMPS:C12:1,2019-03-01T16:05:00Z,27.4980,-83.7220,1020.53,1111122 
COMPS,ioos:station:USF.COMPS:C12:1,2019-03-01T16:35:00Z,27.4980,-83.7220,1020.67,1111122 
COMPS,ioos:station:USF.COMPS:C12:1,2019-03-01T17:05:00Z,27.4980,-83.7220,1020.52,1111122 
COMPS,ioos:station:USF.COMPS:C12:1,2019-03-01T17:35:00Z,27.4980,-83.7220,1020.2,1111122 
COMPS,ioos:station:USF.COMPS:C12:1,2019-03-01T18:05:00Z,27.4980,-83.7220,1019.7,1111122 
COMPS,ioos:station:USF.COMPS:C12:1,2019-03-01T18:35:00Z,27.4980,-83.7220,1018.89,1111122 
COMPS,ioos:station:USF.COMPS:C12:1,2019-03-01T19:05:00Z,27.4980,-83.7220,1018.64,1111122 
COMPS,ioos:station:USF.COMPS:C12:1,2019-03-01T19:35:00Z,27.4980,-83.7220,1018.91,1111122 
COMPS,ioos:station:USF.COMPS:C12:1,2019-03-01T20:05:00Z,27.4980,-83.7220,1018.62,1111122 
COMPS,ioos:station:USF.COMPS:C12:1,2019-03-01T20:35:00Z,27.4980,-83.7220,1019.33,1111122 
COMPS,ioos:station:USF.COMPS:C12:1,2019-03-01T21:05:00Z,27.4980,-83.7220,1019.61,1111122 
COMPS,ioos:station:USF.COMPS:C12:1,2019-03-01T21:35:00Z,27.4980,-83.7220,1019.04,1111122 
COMPS,ioos:station:USF.COMPS:C12:1,2019-03-01T22:05:00Z,27.4980,-83.7220,1018.74,1111122 
COMPS,ioos:station:USF.COMPS:C12:1,2019-03-01T22:35:00Z,27.4980,-83.7220,1018.91,1111122 
COMPS,ioos:station:USF.COMPS:C12:1,2019-03-01T23:05:00Z,27.4980,-83.7220,1018.95,1111122 
COMPS,ioos:station:USF.COMPS:C12:1,2019-03-01T23:35:00Z,27.4980,-83.7220,1019.47,1111122 
COMPS,ioos:station:USF.COMPS:C12:1,2019-03-02T00:05:00Z,27.4980,-83.7220,1019.55,1111122 
COMPS,ioos:station:USF.COMPS:C12:1,2019-03-02T00:35:00Z,27.4980,-83.7220,1019.8,1111122 
COMPS,ioos:station:USF.COMPS:C12:1,2019-03-02T01:05:00Z,27.4980,-83.7220,1019.99,1111122 
COMPS,ioos:station:USF.COMPS:C12:1,2019-03-02T01:35:00Z,27.4980,-83.7220,1020.31,1111122 
COMPS,ioos:station:USF.COMPS:C12:1,2019-03-02T02:05:00Z,27.4980,-83.7220,1020.61,1111122 
COMPS,ioos:station:USF.COMPS:C12:1,2019-03-02T02:35:00Z,27.4980,-83.7220,1020.75,1111122 
COMPS,ioos:station:USF.COMPS:C12:1,2019-03-02T03:05:00Z,27.4980,-83.7220,1020.61,1111122 
COMPS,ioos:station:USF.COMPS:C12:1,2019-03-02T03:35:00Z,27.4980,-83.7220,1020.58,1111122 
COMPS,ioos:station:USF.COMPS:C12:1,2019-03-02T04:05:00Z,27.4980,-83.7220,1020.7,1111122 
COMPS,ioos:station:USF.COMPS:C12:1,2019-03-02T04:35:00Z,27.4980,-83.7220,1020.52,1111122 
COMPS,ioos:station:USF.COMPS:C12:1,2019-03-02T05:05:00Z,27.4980,-83.7220,1020.35,1111122 
COMPS,ioos:station:USF.COMPS:C12:1,2019-03-02T05:35:00Z,27.4980,-83.7220,1020.18,1111122 
COMPS,ioos:station:USF.COMPS:C12:1,2019-03-02T06:05:00Z,27.4980,-83.7220,1020.16,1111122 
COMPS,ioos:station:USF.COMPS:C12:1,2019-03-02T06:35:00Z,27.4980,-83.7220,1019.53,1111122 
COMPS,ioos:station:USF.COMPS:C12:1,2019-03-02T07:05:00Z,27.4980,-83.7220,1019.39,1111122 
COMPS,ioos:station:USF.COMPS:C12:1,2019-03-02T07:35:00Z,27.4980,-83.7220,1019.11,1111122 
COMPS,ioos:station:USF.COMPS:C12:1,2019-03-02T08:05:00Z,27.4980,-83.7220,1018.64,1111122 
COMPS,ioos:station:USF.COMPS:C12:1,2019-03-02T08:35:00Z,27.4980,-83.7220,1018.48,1111122 
COMPS,ioos:station:USF.COMPS:C12:1,2019-03-02T09:05:00Z,27.4980,-83.7220,1018.82,1111122 
COMPS,ioos:station:USF.COMPS:C12:1,2019-03-02T09:35:00Z,27.4980,-83.7220,1019.29,1111122 
COMPS,ioos:station:USF.COMPS:C12:1,2019-03-02T10:05:00Z,27.4980,-83.7220,1019.41,1111122 
COMPS,ioos:station:USF.COMPS:C12:1,2019-03-02T10:35:00Z,27.4980,-83.7220,1019.13,1111122 
COMPS,ioos:station:USF.COMPS:C12:1,2019-03-02T11:05:00Z,27.4980,-83.7220,1019.47,1111122 
COMPS,ioos:station:USF.COMPS:C12:1,2019-03-02T11:35:00Z,27.4980,-83.7220,1019.4,1111122 
COMPS,ioos:station:USF.COMPS:C12:1,2019-03-02T12:05:00Z,27.4980,-83.7220,1019.28,1111122 
COMPS,ioos:station:USF.COMPS:C12:1,2019-03-02T12:35:00Z,27.4980,-83.7220,1019.51,1111122 
COMPS,ioos:station:USF.COMPS:C12:1,2019-03-02T13:05:00Z,27.4980,-83.7220,1019.73,1111122 
COMPS,ioos:station:USF.COMPS:C12:1,2019-03-02T13:35:00Z,27.4980,-83.7220,1020.14,1111122 
COMPS,ioos:station:USF.COMPS:C12:1,2019-03-02T14:05:00Z,27.4980,-83.7220,1020.69,1111122 
COMPS,ioos:station:USF.COMPS:C12:1,2019-03-02T14:35:00Z,27.4980,-83.7220,1020.7,1111122 
COMPS,ioos:station:USF.COMPS:C12:1,2019-03-02T15:05:00Z,27.4980,-83.7220,1020.92,1111122 
COMPS,ioos:station:USF.COMPS:C12:1,2019-03-02T15:35:00Z,27.4980,-83.7220,1021.05,1111122 
COMPS,ioos:station:USF.COMPS:C12:1,2019-03-02T16:05:00Z,27.4980,-83.7220,1020.88,1111122 
COMPS,ioos:station:USF.COMPS:C12:1,2019-03-02T16:35:00Z,27.4980,-83.7220,1020.84,1111122 
COMPS,ioos:station:USF.COMPS:C12:1,2019-03-02T17:05:00Z,27.4980,-83.7220,1020.63,1111122 
COMPS,ioos:station:USF.COMPS:C12:1,2019-03-02T17:35:00Z,27.4980,-83.7220,1020.58,1111122 
COMPS,ioos:station:USF.COMPS:C12:1,2019-03-02T18:05:00Z,27.4980,-83.7220,1019.88,1111122 
COMPS,ioos:station:USF.COMPS:C12:1,2019-03-02T18:35:00Z,27.4980,-83.7220,1019.47,1111122 
COMPS,ioos:station:USF.COMPS:C12:1,2019-03-02T19:05:00Z,27.4980,-83.7220,1018.86,1111122 
COMPS,ioos:station:USF.COMPS:C12:1,2019-03-02T19:35:00Z,27.4980,-83.7220,1018.58,1111122 
COMPS,ioos:station:USF.COMPS:C12:1,2019-03-02T20:05:00Z,27.4980,-83.7220,1018.34,1111122 
COMPS,ioos:station:USF.COMPS:C12:1,2019-03-02T20:35:00Z,27.4980,-83.7220,1018.36,1111122 
COMPS,ioos:station:USF.COMPS:C12:1,2019-03-02T21:05:00Z,27.4980,-83.7220,1018.4,1111122 
COMPS,ioos:station:USF.COMPS:C12:1,2019-03-02T21:35:00Z,27.4980,-83.7220,1018.51,1111122 
COMPS,ioos:station:USF.COMPS:C12:1,2019-03-02T22:05:00Z,27.4980,-83.7220,1018.57,1111122 
COMPS,ioos:station:USF.COMPS:C12:1,2019-03-02T22:35:00Z,27.4980,-83.7220,1018.38,1111122 
COMPS,ioos:station:USF.COMPS:C12:1,2019-03-02T23:05:00Z,27.4980,-83.7220,1018.49,1111122 
COMPS,ioos:station:USF.COMPS:C12:1,2019-03-02T23:35:00Z,27.4980,-83.7220,1018.47,1111122 
COMPS,ioos:station:USF.COMPS:C12:1,2019-03-03T00:05:00Z,27.4980,-83.7220,1018.72,1111122 
COMPS,ioos:station:USF.COMPS:C12:1,2019-03-03T00:35:00Z,27.4980,-83.7220,1019.09,1111122 
COMPS,ioos:station:USF.COMPS:C12:1,2019-03-03T01:05:00Z,27.4980,-83.7220,1019.16,1111122 
COMPS,ioos:station:USF.COMPS:C12:1,2019-03-03T01:35:00Z,27.4980,-83.7220,1019.19,1111122 
COMPS,ioos:station:USF.COMPS:C12:1,2019-03-03T02:05:00Z,27.4980,-83.7220,1019.33,1111122 
COMPS,ioos:station:USF.COMPS:C12:1,2019-03-03T02:35:00Z,27.4980,-83.7220,1019.57,1111122 
COMPS,ioos:station:USF.COMPS:C12:1,2019-03-03T03:05:00Z,27.4980,-83.7220,1019.46,1111122 
COMPS,ioos:station:USF.COMPS:C12:1,2019-03-03T03:35:00Z,27.4980,-83.7220,1019.3,1111122 
COMPS,ioos:station:USF.COMPS:C12:1,2019-03-03T04:05:00Z,27.4980,-83.7220,1019.11,1111122 
COMPS,ioos:station:USF.COMPS:C12:1,2019-03-03T04:35:00Z,27.4980,-83.7220,1019.06,1111122 
COMPS,ioos:station:USF.COMPS:C12:1,2019-03-03T05:05:00Z,27.4980,-83.7220,1018.71,1111122 
COMPS,ioos:station:USF.COMPS:C12:1,2019-03-03T05:35:00Z,27.4980,-83.7220,1018.38,1111122 
COMPS,ioos:station:USF.COMPS:C12:1,2019-03-03T06:05:00Z,27.4980,-83.7220,1018.1,1111122 
COMPS,ioos:station:USF.COMPS:C12:1,2019-03-03T06:35:00Z,27.4980,-83.7220,1018.08,1111122 
COMPS,ioos:station:USF.COMPS:C12:1,2019-03-03T07:05:00Z,27.4980,-83.7220,1017.74,1111122 
COMPS,ioos:station:USF.COMPS:C12:1,2019-03-03T07:35:00Z,27.4980,-83.7220,1017.51,1111122 
COMPS,ioos:station:USF.COMPS:C12:1,2019-03-03T08:05:00Z,27.4980,-83.7220,1017.09,1111122 
COMPS,ioos:station:USF.COMPS:C12:1,2019-03-03T08:35:00Z,27.4980,-83.7220,1016.89,1111122 
COMPS,ioos:station:USF.COMPS:C12:1,2019-03-03T09:05:00Z,27.4980,-83.7220,1016.6,1111122 
COMPS,ioos:station:USF.COMPS:C12:1,2019-03-03T09:35:00Z,27.4980,-83.7220,1016.32,1111122 
COMPS,ioos:station:USF.COMPS:C12:1,2019-03-03T10:05:00Z,27.4980,-83.7220,1016.26,1111122 
COMPS,ioos:station:USF.COMPS:C12:1,2019-03-03T10:35:00Z,27.4980,-83.7220,1016.34,1111122 
COMPS,ioos:station:USF.COMPS:C12:1,2019-03-03T11:05:00Z,27.4980,-83.7220,1016.6,1111122 
COMPS,ioos:station:USF.COMPS:C12:1,2019-03-03T11:35:00Z,27.4980,-83.7220,1016.73,1111122 
COMPS,ioos:station:USF.COMPS:C12:1,2019-03-03T12:05:00Z,27.4980,-83.7220,1016.92,1111122 
COMPS,ioos:station:USF.COMPS:C12:1,2019-03-03T12:35:00Z,27.4980,-83.7220,1017.09,1111122 
COMPS,ioos:station:USF.COMPS:C12:1,2019-03-03T13:05:00Z,27.4980,-83.7220,1017.34,1111122 
COMPS,ioos:station:USF.COMPS:C12:1,2019-03-03T13:35:00Z,27.4980,-83.7220,1017.28,1111122 
COMPS,ioos:station:USF.COMPS:C12:1,2019-03-03T14:05:00Z,27.4980,-83.7220,1017.63,1111122 
COMPS,ioos:station:USF.COMPS:C12:1,2019-03-03T14:35:00Z,27.4980,-83.7220,1017.8,1111122 
COMPS,ioos:station:USF.COMPS:C12:1,2019-03-03T15:05:00Z,27.4980,-83.7220,1017.64,1111122 
COMPS,ioos:station:USF.COMPS:C12:1,2019-03-03T15:35:00Z,27.4980,-83.7220,1017.49,1111122 
COMPS,ioos:station:USF.COMPS:C12:1,2019-03-03T16:05:00Z,27.4980,-83.7220,1017.47,1111122 
COMPS,ioos:station:USF.COMPS:C12:1,2019-03-03T16:35:00Z,27.4980,-83.7220,1017.31,1111122 
COMPS,ioos:station:USF.COMPS:C12:1,2019-03-03T17:05:00Z,27.4980,-83.7220,1016.66,1111122 
COMPS,ioos:station:USF.COMPS:C12:1,2019-03-03T17:35:00Z,27.4980,-83.7220,1016.14,1111122 
COMPS,ioos:station:USF.COMPS:C12:1,2019-03-03T18:05:00Z,27.4980,-83.7220,1015.7,1111122 
COMPS,ioos:station:USF.COMPS:C12:1,2019-03-03T18:35:00Z,27.4980,-83.7220,1014.81,1111122 
COMPS,ioos:station:USF.COMPS:C12:1,2019-03-03T19:05:00Z,27.4980,-83.7220,1014.27,1111122 
COMPS,ioos:station:USF.COMPS:C12:1,2019-03-03T19:35:00Z,27.4980,-83.7220,1013.83,1111122 
COMPS,ioos:station:USF.COMPS:C12:1,2019-03-03T20:05:00Z,27.4980,-83.7220,1013.58,1111122 
COMPS,ioos:station:USF.COMPS:C12:1,2019-03-03T20:35:00Z,27.4980,-83.7220,1013.39,1111122 
COMPS,ioos:station:USF.COMPS:C12:1,2019-03-03T21:05:00Z,27.4980,-83.7220,1012.99,1111122 
COMPS,ioos:station:USF.COMPS:C12:1,2019-03-03T21:35:00Z,27.4980,-83.7220,1012.73,1111122 
COMPS,ioos:station:USF.COMPS:C12:1,2019-03-03T22:05:00Z,27.4980,-83.7220,1012.76,1111122 
COMPS,ioos:station:USF.COMPS:C12:1,2019-03-03T22:35:00Z,27.4980,-83.7220,1012.7,1111122 
COMPS,ioos:station:USF.COMPS:C12:1,2019-03-03T23:05:00Z,27.4980,-83.7220,1012.7,1111122 
COMPS,ioos:station:USF.COMPS:C12:1,2019-03-03T23:35:00Z,27.4980,-83.7220,1012.64,1111122 
COMPS,ioos:station:USF.COMPS:C12:1,2019-03-04T00:05:00Z,27.4980,-83.7220,1012.88,1111122 
COMPS,ioos:station:USF.COMPS:C12:1,2019-03-04T00:35:00Z,27.4980,-83.7220,1013.0,1111122 
COMPS,ioos:station:USF.COMPS:C12:1,2019-03-04T01:05:00Z,27.4980,-83.7220,1013.06,1111122 
COMPS,ioos:station:USF.COMPS:C12:1,2019-03-04T01:35:00Z,27.4980,-83.7220,1013.25,1111122 
COMPS,ioos:station:USF.COMPS:C12:1,2019-03-04T02:05:00Z,27.4980,-83.7220,1013.1,1111122 
COMPS,ioos:station:USF.COMPS:C12:1,2019-03-04T02:35:00Z,27.4980,-83.7220,1013.35,1111122 
COMPS,ioos:station:USF.COMPS:C12:1,2019-03-04T03:05:00Z,27.4980,-83.7220,1013.53,1111122 
COMPS,ioos:station:USF.COMPS:C12:1,2019-03-04T03:35:00Z,27.4980,-83.7220,1013.87,1111122 
COMPS,ioos:station:USF.COMPS:C12:1,2019-03-04T04:05:00Z,27.4980,-83.7220,1013.67,1111122 
COMPS,ioos:station:USF.COMPS:C12:1,2019-03-04T04:35:00Z,27.4980,-83.7220,1013.36,1111122 
COMPS,ioos:station:USF.COMPS:C12:1,2019-03-04T05:05:00Z,27.4980,-83.7220,1013.02,1111122 
COMPS,ioos:station:USF.COMPS:C12:1,2019-03-04T05:35:00Z,27.4980,-83.7220,1013.06,1111122 
COMPS,ioos:station:USF.COMPS:C12:1,2019-03-04T06:05:00Z,27.4980,-83.7220,1013.14,1111122 
COMPS,ioos:station:USF.COMPS:C12:1,2019-03-04T06:35:00Z,27.4980,-83.7220,1013.05,1111122 
COMPS,ioos:station:USF.COMPS:C12:1,2019-03-04T07:05:00Z,27.4980,-83.7220,1012.76,1111122 
COMPS,ioos:station:USF.COMPS:C12:1,2019-03-04T07:35:00Z,27.4980,-83.7220,1012.42,1111122 
COMPS,ioos:station:USF.COMPS:C12:1,2019-03-04T08:05:00Z,27.4980,-83.7220,1012.17,1111122 
COMPS,ioos:station:USF.COMPS:C12:1,2019-03-04T08:35:00Z,27.4980,-83.7220,1012.3,1111122 
COMPS,ioos:station:USF.COMPS:C12:1,2019-03-04T09:05:00Z,27.4980,-83.7220,1012.33,1111122 
COMPS,ioos:station:USF.COMPS:C12:1,2019-03-04T09:35:00Z,27.4980,-83.7220,1012.66,1111122 
COMPS,ioos:station:USF.COMPS:C12:1,2019-03-04T10:05:00Z,27.4980,-83.7220,1012.81,1111122 
COMPS,ioos:station:USF.COMPS:C12:1,2019-03-04T10:35:00Z,27.4980,-83.7220,1013.12,1111122 
COMPS,ioos:station:USF.COMPS:C12:1,2019-03-04T11:05:00Z,27.4980,-83.7220,1013.41,1111122 
COMPS,ioos:station:USF.COMPS:C12:1,2019-03-04T11:35:00Z,27.4980,-83.7220,1013.64,1111122 
COMPS,ioos:station:USF.COMPS:C12:1,2019-03-04T12:05:00Z,27.4980,-83.7220,1014.17,1111122 
COMPS,ioos:station:USF.COMPS:C12:1,2019-03-04T12:35:00Z,27.4980,-83.7220,1014.55,1111122 
COMPS,ioos:station:USF.COMPS:C12:1,2019-03-04T13:05:00Z,27.4980,-83.7220,1014.94,1111122 
COMPS,ioos:station:USF.COMPS:C12:1,2019-03-04T13:35:00Z,27.4980,-83.7220,1015.26,1111122 
COMPS,ioos:station:USF.COMPS:C12:1,2019-03-04T14:05:00Z,27.4980,-83.7220,1015.73,1111122 
COMPS,ioos:station:USF.COMPS:C12:1,2019-03-04T14:35:00Z,27.4980,-83.7220,1015.92,1111122 
COMPS,ioos:station:USF.COMPS:C12:1,2019-03-04T15:05:00Z,27.4980,-83.7220,1016.12,1111122 
COMPS,ioos:station:USF.COMPS:C12:1,2019-03-04T15:35:00Z,27.4980,-83.7220,1016.09,1111122 
COMPS,ioos:station:USF.COMPS:C12:1,2019-03-04T16:05:00Z,27.4980,-83.7220,1016.22,1111122 
COMPS,ioos:station:USF.COMPS:C12:1,2019-03-04T16:35:00Z,27.4980,-83.7220,1016.36,1111122 
COMPS,ioos:station:USF.COMPS:C12:1,2019-03-04T17:05:00Z,27.4980,-83.7220,1016.42,1111122 
COMPS,ioos:station:USF.COMPS:C12:1,2019-03-04T17:35:00Z,27.4980,-83.7220,1016.28,1111122 
COMPS,ioos:station:USF.COMPS:C12:1,2019-03-04T18:05:00Z,27.4980,-83.7220,1016.16,1111122 
COMPS,ioos:station:USF.COMPS:C12:1,2019-03-04T18:35:00Z,27.4980,-83.7220,1015.88,1111122 
COMPS,ioos:station:USF.COMPS:C12:1,2019-03-04T19:05:00Z,27.4980,-83.7220,1015.6,1111122 
COMPS,ioos:station:USF.COMPS:C12:1,2019-03-04T19:35:00Z,27.4980,-83.7220,1015.58,1111122 
COMPS,ioos:station:USF.COMPS:C12:1,2019-03-04T20:05:00Z,27.4980,-83.7220,1015.66,1111122 
COMPS,ioos:station:USF.COMPS:C12:1,2019-03-04T20:35:00Z,27.4980,-83.7220,1015.42,1111122 
COMPS,ioos:station:USF.COMPS:C12:1,2019-03-04T21:05:00Z,27.4980,-83.7220,1015.42,1111122 
COMPS,ioos:station:USF.COMPS:C12:1,2019-03-04T21:35:00Z,27.4980,-83.7220,1015.54,1111122 
COMPS,ioos:station:USF.COMPS:C12:1,2019-03-04T22:05:00Z,27.4980,-83.7220,1015.97,1111122 
COMPS,ioos:station:USF.COMPS:C12:1,2019-03-04T22:35:00Z,27.4980,-83.7220,1016.46,1111122 
COMPS,ioos:station:USF.COMPS:C12:1,2019-03-04T23:05:00Z,27.4980,-83.7220,1016.4,1111122 
COMPS,ioos:station:USF.COMPS:C12:1,2019-03-04T23:35:00Z,27.4980,-83.7220,1016.79,1111122 
COMPS,ioos:station:USF.COMPS:C12:1,2019-03-05T00:05:00Z,27.4980,-83.7220,1016.95,1111122 
COMPS,ioos:station:USF.COMPS:C12:1,2019-03-05T00:35:00Z,27.4980,-83.7220,1016.88,1111122 
COMPS,ioos:station:USF.COMPS:C12:1,2019-03-05T01:05:00Z,27.4980,-83.7220,1017.19,1111122 
COMPS,ioos:station:USF.COMPS:C12:1,2019-03-05T01:35:00Z,27.4980,-83.7220,1017.99,1111122 
COMPS,ioos:station:USF.COMPS:C12:1,2019-03-05T02:05:00Z,27.4980,-83.7220,1017.84,1111122 
COMPS,ioos:station:USF.COMPS:C12:1,2019-03-05T02:35:00Z,27.4980,-83.7220,1018.12,1111122 
COMPS,ioos:station:USF.COMPS:C12:1,2019-03-05T03:05:00Z,27.4980,-83.7220,1018.21,1111122 
COMPS,ioos:station:USF.COMPS:C12:1,2019-03-05T03:35:00Z,27.4980,-83.7220,1018.38,1111122 
COMPS,ioos:station:USF.COMPS:C12:1,2019-03-05T04:05:00Z,27.4980,-83.7220,1018.69,1111122 
COMPS,ioos:station:USF.COMPS:C12:1,2019-03-05T04:35:00Z,27.4980,-83.7220,1018.07,1111122 
COMPS,ioos:station:USF.COMPS:C12:1,2019-03-05T05:05:00Z,27.4980,-83.7220,1017.78,1111122 
COMPS,ioos:station:USF.COMPS:C12:1,2019-03-05T05:35:00Z,27.4980,-83.7220,1017.72,1111122 
COMPS,ioos:station:USF.COMPS:C12:1,2019-03-05T06:05:00Z,27.4980,-83.7220,1017.43,1111122 
COMPS,ioos:station:USF.COMPS:C12:1,2019-03-05T06:35:00Z,27.4980,-83.7220,1017.08,1111122 
COMPS,ioos:station:USF.COMPS:C12:1,2019-03-05T07:05:00Z,27.4980,-83.7220,1016.33,1111122 
COMPS,ioos:station:USF.COMPS:C12:1,2019-03-05T07:35:00Z,27.4980,-83.7220,1016.57,1111122 
COMPS,ioos:station:USF.COMPS:C12:1,2019-03-05T08:05:00Z,27.4980,-83.7220,1016.8,1111122 
COMPS,ioos:station:USF.COMPS:C12:1,2019-03-05T08:35:00Z,27.4980,-83.7220,1016.38,1111122 
COMPS,ioos:station:USF.COMPS:C12:1,2019-03-05T09:05:00Z,27.4980,-83.7220,1016.39,1111122 
COMPS,ioos:station:USF.COMPS:C12:1,2019-03-05T09:35:00Z,27.4980,-83.7220,1016.59,1111122 
COMPS,ioos:station:USF.COMPS:C12:1,2019-03-05T10:05:00Z,27.4980,-83.7220,1016.7,1111122 
COMPS,ioos:station:USF.COMPS:C12:1,2019-03-05T10:35:00Z,27.4980,-83.7220,1016.86,1111122 
COMPS,ioos:station:USF.COMPS:C12:1,2019-03-05T11:05:00Z,27.4980,-83.7220,1017.38,1111122 
COMPS,ioos:station:USF.COMPS:C12:1,2019-03-05T11:35:00Z,27.4980,-83.7220,1018.04,1111122 
COMPS,ioos:station:USF.COMPS:C12:1,2019-03-05T12:05:00Z,27.4980,-83.7220,1018.25,1111122 
COMPS,ioos:station:USF.COMPS:C12:1,2019-03-05T12:35:00Z,27.4980,-83.7220,1018.81,1111122 
COMPS,ioos:station:USF.COMPS:C12:1,2019-03-05T13:05:00Z,27.4980,-83.7220,1019.45,1111122 
COMPS,ioos:station:USF.COMPS:C12:1,2019-03-05T13:35:00Z,27.4980,-83.7220,1020.62,1111122 
COMPS,ioos:station:USF.COMPS:C12:1,2019-03-05T14:05:00Z,27.4980,-83.7220,1020.84,1111122 
COMPS,ioos:station:USF.COMPS:C12:1,2019-03-05T14:35:00Z,27.4980,-83.7220,1021.09,1111122 
COMPS,ioos:station:USF.COMPS:C12:1,2019-03-05T15:05:00Z,27.4980,-83.7220,1021.21,1111122 
COMPS,ioos:station:USF.COMPS:C12:1,2019-03-05T15:35:00Z,27.4980,-83.7220,1021.29,1111122 
COMPS,ioos:station:USF.COMPS:C12:1,2019-03-05T16:05:00Z,27.4980,-83.7220,1021.23,1111122 
COMPS,ioos:station:USF.COMPS:C12:1,2019-03-05T16:35:00Z,27.4980,-83.7220,1021.22,1111122 
COMPS,ioos:station:USF.COMPS:C12:1,2019-03-05T17:05:00Z,27.4980,-83.7220,1021.25,1111122 
COMPS,ioos:station:USF.COMPS:C12:1,2019-03-05T17:35:00Z,27.4980,-83.7220,1020.86,1111122 
COMPS,ioos:station:USF.COMPS:C12:1,2019-03-05T18:05:00Z,27.4980,-83.7220,1020.56,1111122 
COMPS,ioos:station:USF.COMPS:C12:1,2019-03-05T18:35:00Z,27.4980,-83.7220,1020.34,1111122 
COMPS,ioos:station:USF.COMPS:C12:1,2019-03-05T19:05:00Z,27.4980,-83.7220,1020.11,1111122 
COMPS,ioos:station:USF.COMPS:C12:1,2019-03-05T19:35:00Z,27.4980,-83.7220,1020.3,1111122 
COMPS,ioos:station:USF.COMPS:C12:1,2019-03-05T20:05:00Z,27.4980,-83.7220,1020.43,1111122 
COMPS,ioos:station:USF.COMPS:C12:1,2019-03-05T20:35:00Z,27.4980,-83.7220,1020.39,1111122 
COMPS,ioos:station:USF.COMPS:C12:1,2019-03-05T21:05:00Z,27.4980,-83.7220,1020.42,1111122 
COMPS,ioos:station:USF.COMPS:C12:1,2019-03-05T21:35:00Z,27.4980,-83.7220,1020.35,1111122 
COMPS,ioos:station:USF.COMPS:C12:1,2019-03-05T22:05:00Z,27.4980,-83.7220,1020.5,1111122 
COMPS,ioos:station:USF.COMPS:C12:1,2019-03-05T22:35:00Z,27.4980,-83.7220,1020.83,1111122 
COMPS,ioos:station:USF.COMPS:C12:1,2019-03-05T23:05:00Z,27.4980,-83.7220,1021.36,1111122 
COMPS,ioos:station:USF.COMPS:C12:1,2019-03-05T23:35:00Z,27.4980,-83.7220,1021.76,1111122 
COMPS,ioos:station:USF.COMPS:C12:1,2019-03-06T00:05:00Z,27.4980,-83.7220,1022.0,1111122 
COMPS,ioos:station:USF.COMPS:C12:1,2019-03-06T00:35:00Z,27.4980,-83.7220,1022.03,1111122 
COMPS,ioos:station:USF.COMPS:C12:1,2019-03-06T01:05:00Z,27.4980,-83.7220,1022.47,1111122 
COMPS,ioos:station:USF.COMPS:C12:1,2019-03-06T01:35:00Z,27.4980,-83.7220,1023.0,1111122 
COMPS,ioos:station:USF.COMPS:C12:1,2019-03-06T02:05:00Z,27.4980,-83.7220,1023.56,1111122 
COMPS,ioos:station:USF.COMPS:C12:1,2019-03-06T02:35:00Z,27.4980,-83.7220,1023.7,1111122 
COMPS,ioos:station:USF.COMPS:C12:1,2019-03-06T03:05:00Z,27.4980,-83.7220,1023.91,1111122 
COMPS,ioos:station:USF.COMPS:C12:1,2019-03-06T03:35:00Z,27.4980,-83.7220,1024.12,1111122 
COMPS,ioos:station:USF.COMPS:C12:1,2019-03-06T04:05:00Z,27.4980,-83.7220,1024.35,1111122 
COMPS,ioos:station:USF.COMPS:C12:1,2019-03-06T04:35:00Z,27.4980,-83.7220,1024.38,1111122 
COMPS,ioos:station:USF.COMPS:C12:1,2019-03-06T05:05:00Z,27.4980,-83.7220,1024.3,1111122 
COMPS,ioos:station:USF.COMPS:C12:1,2019-03-06T05:35:00Z,27.4980,-83.7220,1024.4,1111122 
COMPS,ioos:station:USF.COMPS:C12:1,2019-03-06T06:05:00Z,27.4980,-83.7220,1024.6,1111122 
COMPS,ioos:station:USF.COMPS:C12:1,2019-03-06T06:35:00Z,27.4980,-83.7220,1024.64,1111122 
COMPS,ioos:station:USF.COMPS:C12:1,2019-03-06T07:05:00Z,27.4980,-83.7220,1024.53,1111122 
COMPS,ioos:station:USF.COMPS:C12:1,2019-03-06T07:35:00Z,27.4980,-83.7220,1024.4,1111122 
COMPS,ioos:station:USF.COMPS:C12:1,2019-03-06T08:05:00Z,27.4980,-83.7220,1024.26,1111122 
COMPS,ioos:station:USF.COMPS:C12:1,2019-03-06T08:35:00Z,27.4980,-83.7220,1024.64,1111122 
COMPS,ioos:station:USF.COMPS:C12:1,2019-03-06T09:05:00Z,27.4980,-83.7220,1024.68,1111122 
COMPS,ioos:station:USF.COMPS:C12:1,2019-03-06T09:35:00Z,27.4980,-83.7220,1024.84,1111122 
COMPS,ioos:station:USF.COMPS:C12:1,2019-03-06T10:05:00Z,27.4980,-83.7220,1025.06,1111122 
COMPS,ioos:station:USF.COMPS:C12:1,2019-03-06T10:35:00Z,27.4980,-83.7220,1025.38,1111122 
COMPS,ioos:station:USF.COMPS:C12:1,2019-03-06T11:05:00Z,27.4980,-83.7220,1025.44,1111122 
COMPS,ioos:station:USF.COMPS:C12:1,2019-03-06T11:35:00Z,27.4980,-83.7220,1025.97,1111122 
COMPS,ioos:station:USF.COMPS:C12:1,2019-03-06T12:05:00Z,27.4980,-83.7220,1026.31,1111122 
COMPS,ioos:station:USF.COMPS:C12:1,2019-03-06T12:35:00Z,27.4980,-83.7220,1026.7,1111122 